Location: Staunton
(38.1490°N, 79.0720°W)
Time: 13:46:25
(UTC-04:00)

ISS - Pass Details

Date: 19 July 2019
Orbit: 409 x 418 km, 51.6° (Epoch: 20 July)

Event Time Altitude Azimuth Distance (km) Brightness Sun altitude
Rises 02:29:25 0° 319° (NW) 2,345 0.4 -28.9°
Reaches altitude 10° 02:32:20 10° 347° (NNW) 1,480 -0.3 -28.7°
Maximum altitude 02:34:07 14° 20° (NNE) 1,270 -0.5 -28.6°
Drops below altitude 10° 02:35:55 10° 53° (NE) 1,475 -0.3 -28.5°
Sets 02:38:48 0° 81° (E) 2,333 0.4 -28.3°
